Regional Weather Roundup
Issued by NWS

Home | Current Version | Previous Version | Graphics & Text | Print | Product List | Glossary On
Versions: 1 2 3 4 5 6 7 8 9 10 11 12 13 14 15 16 17 18 19 20 21 22 23 24 25 26 27 28 29 30 31 32 33 34 35 36 37 38 39 40 41 42 43 44 45 46 47 48 49 50
000
ASUS43 KFSD 181902
RWRSD

WEATHER ROUNDUP FOR SOUTH DAKOTA
NATIONAL WEATHER SERVICE SIOUX FALLS SD
200 PM CDT FRI APR 18 2014

NOTE: "FAIR" INDICATES FEW OR NO CLOUDS BELOW 12,000 FEET WITH NO
SIGNIFICANT WEATHER AND/OR OBSTRUCTIONS TO VISIBILITY.


SDZ001>005-009-010-012>017-182000-
NORTHWEST AND NORTH CENTRAL SOUTH DAKOTA

CITY           SKY/WX    TMP DP  RH WIND       PRES   REMARKS
FAITH            N/A     60  39  45 SE20G29   29.75F
MOBRIDGE       MOSUNNY   61  37  41 SE24      29.81F
$$

SDZ012>016-024>037-041>051-057-063-072>074-182000-
SOUTHWEST AND SOUTH CENTRAL SOUTH DAKOTA

CITY           SKY/WX    TMP DP  RH WIND       PRES   REMARKS
RAPID CTY ARPT PTSUNNY   76  36  23 S24G32    29.69F
PIERRE         PTSUNNY   69  40  34 SE17G25   29.79F
CUSTER         CLOUDY    62  30  29 SW13G25   29.83F
ELLSWORTH AFB  PTSUNNY   74  37  26 S24       29.68F
PHILIP         PTSUNNY   74  42  31 S13G18    29.74F
PINE RIDGE     PTSUNNY   75  39  27 S20       29.79F
WINNER         FAIR      73  34  23 S26G38    29.84F
$$

SDZ004>011-016>023-039-040-182000-
NORTHEAST SOUTH DAKOTA

CITY           SKY/WX    TMP DP  RH WIND       PRES   REMARKS
ABERDEEN       SUNNY     59  37  44 SE26G39   29.97F
WATERTOWN      MOSUNNY   52  37  56 SE22G36   30.04F
SISSETON         N/A     46  35  65 SE28G36   30.11F
$$

SDZ017-020-022-023-036>040-048>070-182000-
SOUTHEAST SOUTH DAKOTA

CITY           SKY/WX    TMP DP  RH WIND       PRES   REMARKS
SIOUX FALLS    PTSUNNY   61  34  36 SE26G38   30.08F
HURON          PTSUNNY   67  38  34 S26G37    29.94F
CHAMBERLAIN      N/A     73  37  27 S28G38    29.87F
MITCHELL       SUNNY     68  40  35 S35G44    29.97F
YANKTON        SUNNY     64  37  36 SE29G38   30.06F
$$

ABBREVIATIONS USED IN REMARKS
   TC - TEMPERATURE IN CELSIUS
  WCI - WIND CHILL INDEX
   HX - HEAT INDEX
  VSB - VISIBILITY




USA.gov is the U.S. government's official web portal to all federal, state and local government web resources and services.